Weather History for Meacham, OR

Change the Weather History Date:

Saturday, August 3, 2013

  Actual Average Record
Temperature  
Mean Temperature 57 °F -  
Max Temperature 73 °F 79 °F 93 °F (1997)
Min Temperature 41 °F 39 °F 27 °F (2002)
Degree Days  
Heating Degree Days 8    
Growing Degree Days 7 (Base 50)    
Moisture  
Dew Point 45 °F    
Average Humidity 65    
Maximum Humidity 93    
Minimum Humidity 38    
Precipitation  
Precipitation 0.00 in - - ()
Sea Level Pressure  
Sea Level Pressure 30.10 in    
Wind  
Wind Speed 1 mph (NNE)    
Max Wind Speed 7 mph    
Max Gust Speed -    
Visibility 10 miles    
Events      
Averages and records for this station are not official NWS values.
T = Trace of Precipitation, MM = Missing Value Source: NWS Daily Summary

Daily Weather History Graph

Daily Weather History Graph

Search for Another Location

Airport:

Trip Planner

Search our weather history database for the weather conditions in past years. The results will help you decide how hot, cold, wet, or windy it might be!

Date:

Astronomy

Aug. 03, 2013 Rise Set
Actual Time 5:40 AM PDT 8:18 PM PDT
Civil Twilight 5:06 AM PDT 8:52 PM PDT
Nautical Twilight 4:23 AM PDT 9:34 PM PDT
Astronomical Twilight 3:34 AM PDT 10:23 PM PDT
Moon 2:51 AM PDT (8/3) 6:05 PM PDT (8/3)
Length of Visible Light 15h 45m
Length of Day
14h 38m
Waning Crescent, 9% of the Moon is Illuminated
Aug 3
Waning Crescent
Aug 6
New
Aug 14
First Quarter
Aug 20
Full
Aug 28
Last Quarter

Hourly Weather History & Observations

Time (PDT) Temp. Dew Point Humidity Pressure Visibility Wind Dir Wind Speed Gust Speed Precip Events Conditions
12:56 AM 46.0 °F 43.0 °F 89% 30.10 in 10.0 mi Calm Calm - N/A   Clear
1:56 AM 45.0 °F 42.1 °F 90% 30.09 in 10.0 mi Calm Calm - N/A   Clear
2:56 AM 45.0 °F 42.1 °F 90% 30.09 in 10.0 mi Calm Calm - N/A   Clear
3:56 AM 43.0 °F 41.0 °F 93% 30.10 in 10.0 mi Calm Calm - N/A   Clear
4:56 AM 42.1 °F 39.9 °F 92% 30.11 in 9.0 mi Calm Calm - N/A   Clear
5:56 AM 41.0 °F 39.0 °F 93% 30.12 in 9.0 mi Calm Calm - N/A   Clear
6:56 AM 44.1 °F 41.0 °F 89% 30.12 in 10.0 mi Calm Calm - N/A   Clear
7:56 AM 54.0 °F 46.0 °F 75% 30.12 in 10.0 mi Calm Calm - N/A   Clear
8:56 AM 62.1 °F 48.0 °F 60% 30.11 in 10.0 mi Calm Calm - N/A   Clear
9:56 AM 66.0 °F 46.0 °F 48% 30.11 in 10.0 mi Calm Calm - N/A   Clear
10:56 AM 68.0 °F 45.0 °F 43% 30.12 in 10.0 mi NNE 4.6 mph - N/A   Clear
11:56 AM 72.0 °F 46.9 °F 41% 30.11 in 10.0 mi Variable 4.6 mph - N/A   Partly Cloudy
12:56 PM 71.1 °F 48.0 °F 44% 30.11 in 10.0 mi Calm Calm - N/A   Clear
1:56 PM 72.0 °F 48.0 °F 43% 30.10 in 10.0 mi Variable 5.8 mph - N/A   Partly Cloudy
2:56 PM 72.0 °F 48.0 °F 43% 30.09 in 10.0 mi Variable 6.9 mph - N/A   Clear
3:56 PM 73.0 °F 46.9 °F 39% 30.09 in 10.0 mi Variable 3.5 mph - N/A   Clear
4:56 PM 73.9 °F 46.9 °F 38% 30.08 in 10.0 mi Variable 4.6 mph - N/A   Clear
5:56 PM 72.0 °F 46.0 °F 40% 30.07 in 10.0 mi Variable 4.6 mph - N/A   Clear
6:56 PM 70.0 °F 45.0 °F 41% 30.07 in 10.0 mi Calm Calm - N/A   Clear
7:56 PM 64.9 °F 46.0 °F 50% 30.06 in 10.0 mi Calm Calm - N/A   Clear
8:56 PM 59.0 °F 46.9 °F 64% 30.07 in 10.0 mi Calm Calm - N/A   Clear
9:56 PM 54.0 °F 46.9 °F 77% 30.09 in 10.0 mi Calm Calm - N/A   Clear
10:56 PM 51.1 °F 46.0 °F 83% 30.09 in 10.0 mi Calm Calm - N/A   Clear
11:56 PM 48.0 °F 45.0 °F 89% 30.09 in 10.0 mi Calm Calm - N/A   Clear